Regional Weather Roundup
Issued by NWS

Home | Current Version | Previous Version | Graphics & Text | Print | Product List | Glossary On
Versions: 1 2 3 4 5 6 7 8 9 10 11 12 13 14 15 16 17 18 19 20 21 22 23 24 25 26 27 28 29 30 31 32 33 34 35 36 37 38 39 40 41 42 43 44 45 46 47 48 49 50
000
ASUS43 KLMK 261102
RWRKY
KENTUCKY REGIONAL WEATHER ROUNDUP
NATIONAL WEATHER SERVICE LOUISVILLE KY
700 AM EDT SUN APR 26 2015

NOTE "FAIR" INDICATES FEW OR NO CLOUDS BELOW 12,000 FEET
WITH NO SIGNIFICANT WEATHER AND/OR OBSTRUCTIONS TO VISIBILITY.

KYZ001>023-026-027-061>063-070>075-261200-
WESTERN AND SOUTH CENTRAL KENTUCKY

CITY           SKY/WX    TMP DP  RH WIND       PRES   REMARKS
PADUCAH        CLOUDY    50  47  89 N13G22    29.76R
HENDERSON      CLOUDY    48  43  81 NE10      29.78R
OWENSBORO      CLOUDY    48  45  90 NE8       29.78R FOG
HOPKINSVILLE   CLOUDY    51  50  95 N12       29.72R
BOWLING GREEN  CLOUDY    49  46  90 N6        29.73R
GLASGOW        NOT AVBL
$$

KYZ024-025-028>034-038-045-046-053-261200-
NORTH CENTRAL KENTUCKY

CITY           SKY/WX    TMP DP  RH WIND       PRES   REMARKS
LOUISVILLE/SDF MOCLDY    46  42  86 N7        29.75R
LOUISVILLE/LOU CLOUDY    45  42  89 N5        29.75R
FORT KNOX      CLOUDY    45  42  89 N8        29.73R
$$

KYZ035>037-039>044-047>052-055>060-089>105-261200-
NORTHEAST KENTUCKY

CITY           SKY/WX    TMP DP  RH WIND       PRES   REMARKS
LEXINGTON      MOCLDY    42  40  92 N8        29.72R
COVINGTON      CLOUDY    41  32  70 N7        29.77
FRANKFORT      PTCLDY    43  40  89 N6        29.72R
$$

KYZ054-064>069-076>088-106>120-261200-
SOUTHEAST KENTUCKY

CITY           SKY/WX    TMP DP  RH WIND       PRES   REMARKS
JACKSON        LGT RAIN  44  42  93 CALM      29.68R FOG
LONDON         CLOUDY    48  43  82 NE9       29.68R
SOMERSET       NOT AVBL
MIDDLESBORO    CLOUDY    57  57  98 N6        29.63R
MONTICELLO     CLOUDY    48  48 100 N8        29.72R FOG
$$




USA.gov is the U.S. government's official web portal to all federal, state and local government web resources and services.